Theta_e
295 294 294 294 294 295 295 294 291 286 287 291 290 293 293 293 293 293 293 293 294 294 295 295 295 296 296 297 298 298 299 299 300 300 301 301 302 303
294 292 292 292 291 292 292 292 291 289 285 290 290 291 292 292 293 292 292 292 293 293 294 294 294 295 295 295 296 297 297 298 298 299 300 301 300 300
291 290 289 290 290 291 291 291 290 289 286 288 290 292 291 291 291 291 291 291 291 292 292 293 293 293 293 293 294 295 295 296 297 298 298 299 300 299
289 289 289 289 290 290 290 289 289 290 288 286 289 289 289 290 290 289 289 289 289 290 292 292 292 292 292 292 293 293 293 294 295 296 296 297 297 298
289 289 289 289 288 289 289 289 290 289 289 287 287 289 289 289 288 288 287 288 288 289 290 291 291 291 291 291 292 292 292 292 294 295 295 296 296 296
289 289 289 289 288 288 289 289 289 288 288 287 286 286 287 288 287 285 285 287 286 287 289 289 289 290 290 290 290 290 290 291 293 295 295 295 295 295
288 288 289 288 287 288 289 289 288 287 287 285 285 285 285 285 283 285 284 285 286 287 286 286 287 287 288 289 289 289 289 291 292 293 294 294 294 294
286 287 287 287 286 287 288 288 288 286 285 284 284 284 284 284 284 283 283 281 280 287 284 284 287 286 287 288 288 288 289 291 291 291 291 292 292 293
287 286 286 286 287 288 288 287 287 286 285 285 284 284 283 284 284 282 282 282 281 284 284 282 286 285 287 287 288 288 289 289 289 289 290 290 291 291
287 286 286 286 288 288 288 287 286 286 285 286 286 285 285 285 285 284 283 283 284 285 285 280 284 284 286 287 288 288 288 289 289 289 290 290 290 290
285 286 287 287 287 287 286 285 284 285 286 286 285 285 285 285 285 284 281 279 278 281 285 281 283 283 284 286 287 288 288 288 289 289 289 289 289 290
286 286 285 286 287 286 285 284 283 284 284 284 284 285 285 285 284 283 280 277 278 278 284 281 282 282 279 285 285 287 287 288 289 288 289 289 289 288
285 285 286 286 285 285 284 284 284 285 283 283 283 284 284 285 285 284 284 282 279 279 284 283 281 281 281 280 284 286 287 287 287 288 289 289 289 289
285 285 285 284 283 283 284 284 284 283 283 282 282 282 282 282 283 283 283 283 284 282 284 283 281 281 280 280 280 284 285 287 287 286 286 287 288 288
286 284 283 282 282 282 282 282 282 282 281 280 280 280 281 281 282 282 283 283 284 284 284 284 283 283 282 280 279 281 282 284 286 286 286 286 286 286
284 283 282 281 281 281 282 282 282 282 280 280 279 280 281 282 281 281 279 280 280 282 284 285 284 283 280 281 281 280 283 281 284 284 284 286 287 286
283 282 282 281 281 281 281 281 281 281 280 279 279 279 279 280 279 280 279 279 277 278 279 282 284 284 284 283 279 281 282 282 283 282 283 282 285 286
282 280 279 279 279 279 279 279 280 280 279 279 279 279 278 278 278 279 279 278 277 278 279 280 279 280 281 284 284 281 282 280 282 282 283 281 281 284
280 279 278 278 278 278 278 278 278 279 279 279 279 278 278 279 278 278 278 277 277 279 279 280 278 277 275 275 282 284 280 280 280 280 281 281 280 282
279 278 278 278 278 278 278 278 278 279 279 279 279 279 278 278 277 277 277 276 278 279 277 280 279 278 275 275 276 280 282 280 279 279 279 281 283 284
278 278 278 278 278 278 278 278 278 278 278 278 278 278 278 278 278 278 277 278 278 277 276 277 279 282 279 279 277 278 280 282 280 279 280 280 279 280
279 279 278 278 278 278 278 278 277 278 278 278 278 278 279 279 278 278 277 277 277 277 277 279 281 280 279 277 275 276 278 279 282 282 281 280 279 277
279 279 279 278 278 278 278 277 277 277 278 278 278 278 279 278 280 279 278 278 278 277 277 277 279 279 277 277 275 276 276 277 279 279 280 281 280 281
Wind_Speed
7 6 5 6 4 4 3 3 2 4 5 1 3 5 8 8 10 12 12 17 20 19 19 21 21 22 22 23 23 24 24 24 25 25 25 25 25 23
5 6 5 4 4 3 2 2 1 3 4 1 6 9 9 8 10 12 13 16 16 18 19 19 20 21 22 23 24 25 24 24 25 26 24 23 19 16
7 6 5 4 4 3 3 3 1 3 5 6 5 7 10 10 10 10 10 11 10 18 17 20 22 21 21 23 23 22 23 25 24 25 25 22 21 18
7 6 6 4 5 4 3 3 2 3 4 7 7 7 8 9 11 11 9 10 11 14 20 19 19 20 22 22 22 21 21 21 22 22 22 22 17 20
7 6 6 5 4 3 3 2 2 3 4 6 7 6 7 7 10 10 10 10 9 16 17 18 20 23 22 20 19 17 19 22 21 22 21 19 18 18
8 7 6 5 4 4 2 2 4 5 5 5 6 7 6 7 7 9 9 9 11 11 12 16 22 20 19 18 17 16 19 22 23 20 19 16 15 15
7 7 6 6 5 4 2 3 3 5 6 6 6 6 6 8 9 9 10 10 11 9 10 12 11 10 10 13 13 17 21 20 20 17 19 16 14 14
7 6 5 3 2 1 3 3 3 5 6 7 6 8 8 8 8 9 10 12 9 8 12 12 10 10 9 9 17 18 17 17 17 17 19 20 19 17
6 4 2 1 2 2 1 2 3 4 5 6 7 9 10 10 9 10 10 11 12 11 11 12 10 11 10 10 13 14 16 18 18 18 19 19 18 19
4 2 1 1 1 5 5 5 6 5 4 5 6 9 9 10 9 9 10 11 11 9 9 9 10 11 11 9 11 13 17 16 16 18 18 18 18 18
5 1 1 1 5 8 6 5 6 5 4 6 9 9 10 10 9 7 7 8 9 10 7 8 8 12 11 7 7 15 15 16 18 19 17 16 16 17
5 4 2 5 9 7 7 5 5 7 7 8 7 6 6 6 6 5 6 7 8 6 5 7 9 7 6 5 11 9 9 15 18 15 15 15 14 9
2 0 2 9 9 7 6 4 7 8 7 6 5 5 5 6 6 6 7 6 7 8 10 6 6 8 5 9 9 10 9 10 8 10 15 15 14 12
2 2 4 6 6 6 5 7 8 6 4 5 5 6 7 7 8 8 10 9 8 11 13 11 6 8 8 9 10 9 10 10 7 7 7 11 14 13
2 4 5 5 5 2 6 6 4 3 4 5 5 6 7 7 9 9 9 10 10 10 7 9 7 9 8 8 8 10 10 7 6 8 8 7 6 6
3 4 5 4 2 3 3 2 3 3 4 5 5 6 6 6 7 7 7 8 9 7 7 8 9 9 9 8 8 8 7 6 8 8 8 8 5 5
2 2 2 2 2 3 3 3 3 3 4 4 5 6 7 7 7 7 6 7 7 8 8 7 9 9 9 10 8 7 7 7 7 8 9 7 6 5
1 2 2 3 3 3 4 4 4 4 4 5 5 6 7 7 8 8 7 7 7 7 7 7 9 8 7 6 8 7 7 7 7 8 8 8 6 6
2 1 2 3 3 4 4 4 5 5 6 5 6 6 6 6 9 7 7 7 7 7 7 7 6 7 8 9 6 2 7 8 7 7 7 7 7 7
1 2 3 3 3 4 4 5 5 5 6 6 6 6 6 6 7 7 7 7 7 8 7 6 6 6 7 7 8 8 9 7 7 7 7 6 6 7
2 3 3 3 4 4 4 5 5 6 6 6 6 6 7 6 7 7 7 11 11 7 7 7 7 14 6 6 5 6 6 9 8 7 8 6 5 4
3 4 3 4 4 4 4 5 5 6 6 6 6 7 7 6 7 7 7 7 7 7 7 7 7 6 5 4 7 9 7 7 8 7 4 8 5 5
4 4 4 4 4 4 5 5 6 6 6 6 6 7 7 7 6 6 6 7 6 7 7 7 6 5 6 4 7 7 8 8 7 6 4 9 8 9
Wind_Direction
88 96 96 77 78 62 48 17 326 301 315 18 324 348 334 328 335 330 330 339 327 329 328 330 325 327 328 324 319 319 320 322 318 316 313 309 307 308
108 92 97 103 91 84 86 72 350 304 281 317 308 325 322 319 331 329 333 322 329 328 327 320 329 328 326 326 324 322 322 320 318 314 316 314 319 321
104 94 84 84 94 81 79 70 22 304 282 308 303 314 318 328 327 330 327 329 321 321 318 322 322 321 329 326 323 323 324 322 321 318 315 318 313 315
116 118 114 114 96 76 66 41 330 284 302 308 313 326 326 314 333 326 329 325 321 322 323 318 324 321 328 321 320 319 328 321 314 309 308 311 311 316
121 117 111 93 85 65 52 12 325 293 304 307 315 321 328 335 332 329 328 322 326 328 323 329 330 320 316 317 315 324 322 325 319 311 306 314 312 311
116 107 93 80 52 32 43 21 350 328 313 320 326 321 328 338 322 328 328 335 330 332 336 327 320 318 317 315 312 314 319 322 316 317 315 316 313 316
104 103 99 68 37 25 351 1 351 331 325 328 323 321 327 337 336 334 330 331 339 341 332 323 322 320 317 315 313 323 318 313 312 334 337 328 329 329
117 115 106 80 68 47 6 329 2 334 324 321 322 320 323 332 338 333 328 339 330 334 329 317 318 315 319 321 324 322 317 327 331 325 326 323 323 322
103 94 123 114 281 290 122 339 340 315 314 309 317 313 322 335 322 326 329 320 311 318 311 310 307 318 324 320 322 326 329 328 322 315 312 309 312 310
96 120 188 123 101 333 347 332 308 325 336 325 323 320 317 315 323 323 313 301 305 305 321 295 321 318 322 315 317 324 322 324 322 320 316 315 312 306
110 229 270 205 21 13 325 334 321 339 352 319 314 307 317 329 330 318 313 318 311 315 310 323 316 321 318 309 327 326 323 320 321 321 320 318 317 315
150 212 57 18 25 4 350 330 335 345 335 325 329 337 341 339 322 314 306 298 309 302 342 325 317 338 312 311 330 323 323 325 325 327 330 326 319 313
125 273 38 21 15 1 341 339 339 338 329 332 333 335 330 325 326 320 306 291 293 284 297 323 305 308 291 305 318 314 330 330 332 334 340 330 323 319
58 30 35 14 2 2 342 348 346 328 340 337 338 337 340 326 324 319 311 306 294 285 291 296 280 294 295 299 303 321 328 325 341 333 325 327 330 328
56 60 23 17 3 350 10 353 324 355 347 335 334 328 318 316 314 312 317 313 305 299 297 297 287 291 287 289 293 306 316 318 335 339 334 322 320 329
89 40 18 1 3 340 331 353 357 354 337 325 312 312 309 321 321 324 316 321 320 317 319 313 308 309 298 289 297 298 302 321 327 331 325 317 317 338
28 347 338 347 349 359 355 348 342 331 326 309 304 312 316 319 329 326 320 317 318 320 324 325 328 309 288 279 293 297 312 320 329 325 321 322 316 331
281 323 349 351 347 342 338 336 331 322 318 311 307 312 314 314 317 330 326 324 319 320 322 327 329 326 320 304 224 298 323 328 324 321 321 323 323 338
285 346 336 340 334 325 319 312 305 310 315 311 309 307 310 309 320 316 327 321 316 312 324 326 326 328 328 330 329 290 323 324 320 319 327 326 321 331
312 304 307 310 309 306 305 302 305 309 311 307 309 311 310 312 318 318 322 318 314 326 325 318 323 331 318 315 315 310 318 320 327 322 324 324 309 299
271 277 279 291 289 291 299 299 300 299 302 309 306 308 305 313 312 318 314 319 324 323 321 323 326 324 301 284 285 318 329 332 332 314 329 323 325 319
279 273 270 274 280 283 299 301 298 299 303 306 310 308 305 312 311 316 318 316 321 319 310 314 321 331 325 327 321 320 325 338 330 333 340 357 345 343
282 275 279 281 280 283 295 296 293 294 299 301 303 301 305 305 309 309 310 312 311 315 323 322 332 336 323 315 314 316 317 328 341 340 347 7 355 346